User: anonymous   Login
Location: Theydon Bois
(51.6750°N, 0.1050°E)
Time: 01:15:15
(UTC+01:00)
Language:

YAOGAN 1 - Orbit

View from above orbital plane
View from above orbital plane
View from above satellite
View from above satellite

Ground track
Ground track

The orbit data is extracted from the following two-line orbital elements,

1 29092U 06015A   18170.54832616 +.00000076 +00000-0 +15984-4 0  9990
2 29092 097.9898 187.0720 0001477 088.4586 271.6796 14.82914845656705
Epoch (UTC): 19 June 2018 13:09:35
Eccentricity: 0.0001477
inclination: 97.9898°
perigee height: 619 km
apogee height: 621 km
right ascension of ascending node: 187.0720°
argument of perigee: 88.4586°
revolutions per day: 14.82914845
mean anomaly at epoch: 271.6796°
orbit number at epoch: 65670

The dashed part of the orbit path shows where the satellite is in the earth's shadow,  

DLR